Location: Unspecified
(48.2082°N, 0.0000°E)
Time: 10:00:15
(UTC+00:00)

Vanguard 1 - Pass Details

Date: 26 June 2019
Orbit: 653 x 3830 km, 34.2° (Epoch: 17 October)

Event Time Altitude Azimuth Distance (km) Brightness Sun altitude
Rises 22:00:09 0° 183° (S) 7,882 - -13.3°
Reaches altitude 10° 22:09:22 10° 166° (SSE) 6,919 - -14.1°
Exits shadow 22:17:53 15° 144° (SE) 6,264 13.5 -14.7°
Maximum altitude 22:20:14 16° 137° (SE) 6,149 13.5 -14.8°
Drops below altitude 10° 22:29:51 10° 108° (ESE) 6,107 13.7 -15.5°
Sets 22:36:45 0° 89° (E) 6,563 14.1 -15.9°
